Regional Weather Roundup
Issued by NWS Grand Forks, ND

Home | Current Version | Previous Version | Graphics & Text | Print | Product List | Glossary On
Versions: 1 2 3 4 5 6 7 8 9 10 11 12 13 14 15 16 17 18 19 20 21 22 23 24 25 26 27 28 29 30 31 32 33 34 35 36 37 38 39 40 41 42 43 44 45 46 47 48 49 50
000
ASUS43 KFGF 050431
RWRFGF
PRAIRIE TO PINES  WEATHER ROUNDUP
NATIONAL WEATHER SERVICE EASTERN NORTH DAKOTA/GRAND FORKS ND
1000 PM CST SUN DEC 04 2016

 **SATELLITE DATA USED TO AUGMENT SKY COVER AT AUTOMATED STATIONS**
 *****  WEATHER ACROSS EASTERN NORTH DAKOTA  *****

CITY           SKY/WX    TMP DP  RH WIND       PRES   REMARKS
GRAND FORKS    CLOUDY    30  25  81 W9        29.67R WCI  22
GRAND FRKS AFB CLOUDY    28  25  88 W9        29.67S WCI  19
GRAND FRKS NWS   N/A     28 N/A N/A NW6         N/A  WCI  22
DEVILS LAKE    FOG       23  21  93 NW3       29.65S VSB 3/4
FARGO          PTCLDY    30  26  85 SW9       29.69S WCI  22
WAHPETON ARPT  CLEAR     30  27  86 W3        29.71S
$$

 ***** WEATHER ACROSS CENTRAL AND WESTERN NORTH DAKOTA  *****

CITY           SKY/WX    TMP DP  RH WIND       PRES   REMARKS
BISMARCK       PTCLDY    18  16  92 NE6       29.64S WCI  10
MINOT          CLOUDY    15  12  88 CALM      29.59S
JAMESTOWN      CLEAR     22  19  89 W5        29.65S WCI  16
MINOT AFB      FOG       14  10  85 CALM      29.59S VSB 1/2
GARRISON         N/A     19  17  92 E3        29.59F
WILLISTON      MOCLDY    21  17  84 CALM      29.53F
DICKINSON      CLOUDY    29  22  75 S7        29.52F WCI  22
HETTINGER      CLOUDY    29  21  72 SE6       29.56F WCI  23
$$

 *****  OTHER AIRPORT OBSERVATIONS IN OUR AREA  *****

CITY           SKY/WX    TMP DP  RH WIND       PRES   REMARKS
WALHALLA         N/A     28  28 100 NW8       29.64S WCI  20
GRAFTON AIRPOR CLOUDY    28  28 100 W13       29.68R WCI  18
VALLEY CITY AR FAIR      18  18 100 CALM      29.68S
CANDO          FOG       21  21 100 SW3       29.66S VSB 1/2
CAVALIER APRT    N/A     30  27  86 W12       29.65R WCI  21
GWINNER          N/A     30  28  93 SW9       29.69S WCI  22
SHEYENNE NWR     N/A     24  21  87 W7        29.95S WCI  16
ROLLA          FOG       18  18 100 CALM      29.62S VSB 1/4
 ***** THE ABOVE OBSERVATIONS ARE NON NWS ARE NOT QUALITY
       CONTROLLED AND MAY MIS-REPORT RAIN FOR SNOW...
$$

  *****  WEATHER ACROSS NORTHERN MINNESOTA  *****

CITY           SKY/WX    TMP DP  RH WIND       PRES   REMARKS
FLAG ISLAND    CLOUDY    30  28  93 SW6       29.57S FOG     WCI  24
WARROAD        LGT SNOW  30  27  86 SW9       29.60R WCI  22
ROSEAU         CLOUDY    30  27  86 W8        29.60S WCI  23
HALLOCK        CLOUDY    30  28  93 W10       29.64R WCI  21
THF RVR FALLS  NOT AVBL
BAUDETTE       LGT SNOW  29  27  92 SW5       29.59S FOG     WCI  24
WASKISH        LGT SNOW  30  28  93 W12       29.62R WCI  21
CROOKSTON      CLOUDY    28  27  93 W10       29.68S WCI  19
GREENBUSH NDAW   N/A     28  28 100 W9          N/A  WCI  20
$$
  *****  WEATHER ACROSS CENTRAL AND WEST MINNESOTA  *****

CITY           SKY/WX    TMP DP  RH WIND       PRES   REMARKS
FOSSTON        CLOUDY    27  25  93 W8        29.67R WCI  18
BEMIDJI        CLOUDY    29  27  90 W20       29.64R WCI  17
PARK RAPIDS    CLOUDY    31  25  78 W10       29.65S WCI  22
ELBOW LAKE     FAIR      27  27 100 CALM      29.71S
WADENA         CLOUDY    30  28  93 W8        29.67S WCI  23
DETROIT LAKES  CLOUDY    32  30  93 W5        29.68S
MOORHEAD       CLEAR     30  27  86 W6        29.70S WCI  24
FERGUS FALLS   CLEAR     28  28 100 SW3       29.74S
MORRIS MN      CLEAR     28  27  93 S6        29.72S WCI  22
STAPLES        CLOUDY    30  28  93 SW6       29.68S WCI  24
$$
  *****  WEATHER ELSEWHERE ACROSS MINNESOTA  *****

CITY           SKY/WX    TMP DP  RH WIND       PRES   REMARKS
DULUTH         DRIZZLE   33  32  96 W12       29.62S WCI  24
INTRNTL FALLS  LGT SNOW  31  29  92 SW7       29.60R FOG     WCI  24
ELY            CLOUDY    30  28  93 CALM      29.60S
CLOQUET        CLOUDY    32  28  86 W9        29.64S WCI  24
WHEATON        CLEAR    N/A N/A N/A SW3       29.73S
BRAINERD       CLOUDY    33  28  81 W12       29.69R WCI  24
HIBBING        CLOUDY    30  27  88 W8        29.62R WCI  22
ALEXANDRIA     CLEAR     31  30  96 SW10      29.71S WCI  22
SAINT CLOUD    CLOUDY    33  31  92 SW9       29.73R
MINNEAPOLIS    CLOUDY    36  28  73 W7        29.77R
$$

  *****  WEATHER ACROSS SOUTH DAKOTA  *****

CITY           SKY/WX    TMP DP  RH WIND       PRES   REMARKS
SIOUX FALLS    PTCLDY    33  29  85 SW6       29.78S
BROOKINGS      CLEAR     27  25  92 S9        29.74F WCI  18
WATERTOWN      CLEAR     26  24  92 S7        29.72F WCI  18
HURON          CLOUDY    30  27  88 S7        29.72F WCI  23
SISSETON         N/A     33  27  78 W13       29.70S WCI  24
ABERDEEN       CLEAR     24  21  88 SE5       29.70F WCI  18
MITCHELL       CLOUDY    32  28  85 S12       29.75F WCI  23
PIERRE         CLOUDY    29  23  78 SE8       29.65F WCI  21
MOBRIDGE       CLOUDY    29  24  82 SE9       29.61F WCI  20
RAPID CITY     PTCLDY    34  18  52 SE3       29.55F
$$

  *****  SOME WEATHER IN NEARBY STATES *****

CITY           SKY/WX    TMP DP  RH WIND       PRES   REMARKS
GLASGOW MT     SNOW      32  31  96 W5        29.48S VSB 1/4
GREAT FALLS MT CLOUDY    22  18  85 N17       29.67R WCI   8
CHEYENNE WY    CLOUDY    41  16  36 SW15      29.71F
SCOTTSBLUFF NE CLOUDY    32  17  54 E5        29.67F
OMAHA NE       CLEAR     30  26  85 SE9       29.90F WCI  22
DES MOINES IA  CLEAR     34  32  92 SW6       29.93R
DAVENPORT IA   CLOUDY    34  31  88 W14       29.95R WCI  25
CHICAGO IL     CLOUDY    31  30  96 SW8       29.89R FOG     WCI  23
EAU CLAIRE WI  CLOUDY    35  32  88 SW8       29.75S
LA CROSSE WI   CLOUDY    36  32  85 S8        29.83R
$$

  *****  SOME NATIONAL WEATHER *****

CITY           SKY/WX    TMP DP  RH WIND       PRES   REMARKS
LA GUARDIA NY  CLOUDY    41  24  51 E10       30.15F
RALEIGH NC     LGT RAIN  42  41  96 SE3       30.10F FOG
ATLANTA GA     LGT RAIN  44  44 100 E12       30.05R
NEW ORLEANS LA CLOUDY    61  61 100 CALM      29.96F
OKLAHOMA CITY  CLOUDY    40  37  89 CALM      30.03R
ALBUQUERQUE NM CLOUDY    38  16  40 N7        30.06F
SALT LAKE CITY CLOUDY    41  21  44 E5        29.82F
LOS ANGELES CA CLOUDY    60  55  83 W6        29.99S
BOISE ID       CLOUDY    36  23  59 NW18      29.89R
SEATTLE WA     MOCLDY    37  32  82 SE9       30.11S
$$

*** WEATHER ACROSS MANITOBA...SASKATCHEWAN AND ONTARIO ***
                ***ONTARIO***

CITY           SKY/WX    TMP DP  RH WIND       PRES   REMARKS
GERALDTON      LGT SNOW  27  25  93 E7        29.72F WCI  19
THUNDER BAY    LGT SNOW  32  32 100 NE3       29.65F
SIOUX LOOKOUT  FLURRIES  28  27  93 SE7       29.60F WCI  21
TORONTO        LGT SNOW  32  32 100 SE13      29.89F WCI  22
BIG TROUT LK   CLOUDY    27  25  93 S10       29.72F WCI  17
PICKLE LAKE    NOT AVBL
DRYDEN         FLURRIES  30  28  93 SE6       29.58S WCI  24
KENORA         LGT SNOW  30  30 100 S7        29.55F WCI  23
$$
                *** MANITOBA***

CITY           SKY/WX    TMP DP  RH WIND       PRES   REMARKS
BRANDON        CLOUDY    25  23  93 N3        29.62S
DAUPHIN        CLOUDY    25  23  93 W8        29.62S WCI  16
ISLAND LAKE    NOT AVBL
PILOT MOUND      N/A     25  23  93 NW10        N/A  WCI  15
THE PAS        CLOUDY    27  21  80 S2        29.59S
THOMPSON       LGT SNOW  25  23  93 CALM      29.62S
WINNIPEG       CLOUDY    32  28  86 NW14      29.60R WCI  22
LYNN LAKE      LGT SNOW  23  23 100 E2        29.56S
CHURCHILL      CLOUDY    19  19 100 VRB2      29.78F
GILLAM         FLURRIES  19  16  86 SE3       29.71F
$$
                ***SASKATCHEWAN***

CITY           SKY/WX    TMP DP  RH WIND       PRES   REMARKS
ESTEVAN        NOT AVBL
KINDERSLEY     PTCLDY    18  14  86 NW7       29.62R WCI   8
LLOYDMINSTER   LGT SNOW  14  10  85 NW20G26   29.66R WCI  -3
PRINCE ALBERT  MOCLDY    18  14  86 W5        29.56R WCI  11
REGINA         CLOUDY    19  18  93 E7        29.54S WCI  10
YORKTON        FOG       19  18  93 S3        29.58F VSB 1/2
N. BATTLEFORD  FLURRIES  23  18  80 NW20      29.63R WCI   8
LA RONGE       FLURRIES  23  21  93 W3        29.54S
SASKATOON      PTCLDY    14  10  85 W8        29.61S WCI   3
SWIFT CURRENT  CLOUDY    23  19  86 N15       29.55R WCI  10
$$
NOTE: THESE ARE AUTOMATED STATIONS WITH LIMITED QUALITY CONTROL
      "FAIR" INDICATES FEW OR NO CLOUDS BELOW 12,000 FEET WITH NO
      SIGNIFICANT WEATHER AND/OR OBSTRUCTIONS TO VISIBILITY.
      SKY/WX - SKY CONDITION AND SIGNIFICANT WEATHER.
      TMP - AIR TEMPERATURE.    DP   - DEWPOINT TEMPERATURE.
      RH  - RELATIVE HUMIDITY.  PRES - PRESSURE.
      HX  - HEAT INDEX.         WCI  - WIND CHILL INDEX.
$



USA.gov is the U.S. government's official web portal to all federal, state and local government web resources and services.